Unicom:                    122.8

AWOS:                  118.275

Elevation           1458’ MSL

TPA:                   2500’ MSL

06/24:         5003’ L   75’ W

PAPI:       06/Left     24/Left

(Operate lights on unicom freq.)

Traffic Pattern: Left

Beacon: Sunset to Sunrise

Windsock: yes, lighted

Segmented Circle: No

 

Cleveland Center: 126.72/291.65

FSS: Altoona

[Source: ADDS]
METAR
KFKL 211356Z AUTO 22008KT 10SM CLR 14/11 A2998 RMK AO2 SLP151 T01390111 =
KFKL 211120Z 2112/2212 20011KT P6SM SCT100 FM211900 20010G18KT P6SM VCTS BKN050CB TEMPO 2120/2123 21015G25KT 4SM TSRA BKN035CB FM212300 26009G17KT P6SM -SHRA BKN035 FM220300 26008KT P6SM BKN020 FM220800 26006KT P6SM OVC005
TAF
KFKL 211120Z 2112/2212 20011KT P6SM SCT100 FM211900 20010G18KT P6SM VCTS BKN050CB TEMPO 2120/2123 21015G25KT 4SM TSRA BKN035CB FM212300 26009G17KT P6SM -SHRA BKN035 FM220300 26008KT P6SM BKN020 FM220800 26006KT P6SM OVC005 =
[Source: ADDS]
METAR
KDUJ 211353Z AUTO 23010KT 10SM CLR 15/11 A3000 RMK AO2 SLP156 T01500106 =
KDUJ 211120Z 2112/2212 22006KT P6SM SCT100 FM211500 21010G18KT P6SM BKN100 FM212000 20010G18KT P6SM VCTS BKN050CB TEMPO 2121/2124 21015G25KT 4SM TSRA BKN035CB FM220000 26009G17KT P6SM -SHRA BKN035 FM220300 26008KT P6SM BKN020 FM220800 26006KT P6SM OVC005
TAF
KDUJ 211120Z 2112/2212 22006KT P6SM SCT100 FM211500 21010G18KT P6SM BKN100 FM212000 20010G18KT P6SM VCTS BKN050CB TEMPO 2121/2124 21015G25KT 4SM TSRA BKN035CB FM220000 26009G17KT P6SM -SHRA BKN035 FM220300 26008KT P6SM BKN020 FM220800 26006KT P6SM OVC005 =

Welcome to Clarion County Airport.

We look forward to serving all of your aviation needs.


Clarion County Airport is a General Aviation, Business Class airport serving the Clarion County Area in Central Western Pennsylvania.  Our 5,003' asphalt runway and gps approaches are capable of serving most of the general aviation fleet in most weather conditions.


If you are planning a fuel stop while flying in Western Pennsylvania, consider paying us a visit. Our prices are some of the lowest in the state Check prices here ----> www.airnav.com/fuel and enter identifier KAXQ or see current prices below. We can have you fueled and taxiing out to the runway in about 10 minutes. Our current hours of operation are Monday- Sunday 8:00AM-4:00PM. Holiday closures are Christmas Day and Thanksgiving. If you require use of the facilities during the holidays or after hours please call ahead and someone will be there to assist you.


- Airport Manager -  


                             CURRENT FUEL PRICES       JET-A w/additive    $3.55            100LL     $4.95 CC  


                              Self Service fueling available 24/7, credit card reader enabled. Center point fueling available upon request.

                                                           For after hours fueling assistance please contact 814-316-5746